EN

Hourly Weather Alvaro Obregon

Today, 23 January, Saturday

Time Temperature Precipitation Wind Pressure Humidity
00:00 +15°C° 0 mm 1 mps 563 mmHg 58%
01:00 +14°C° 0 mm 1 mps 562 mmHg 58%
02:00 +13°C° 0 mm 0 mps 562 mmHg 59%
03:00 +13°C° 0 mm 0 mps 562 mmHg 60%
04:00 +12°C° 0 mm 0 mps 562 mmHg 61%
05:00 +12°C° 0 mm 0 mps 562 mmHg 62%
06:00 +13°C° 0 mm 0 mps 563 mmHg 59%
07:00 +14°C° 0 mm 0 mps 563 mmHg 57%
08:00 +15°C° 0 mm 0 mps 564 mmHg 54%
09:00 +17°C° 0 mm 0 mps 564 mmHg 48%
10:00 +18°C° 0 mm 0 mps 565 mmHg 42%
11:00 +22°C° 0 mm 1 mps 566 mmHg 36%
12:00 +23°C° 0 mm 1 mps 565 mmHg 33%
13:00 +23°C° 0 mm 1 mps 565 mmHg 30%
14:00 +24°C° 0 mm 1 mps 564 mmHg 27%
15:00 +23°C° 0 mm 1 mps 564 mmHg 32%
16:00 +22°C° 0 mm 1 mps 563 mmHg 36%
17:00 +21°C° 0 mm 1 mps 563 mmHg 41%
18:00 +20°C° 0 mm 1 mps 563 mmHg 46%
19:00 +19°C° 0 mm 1 mps 563 mmHg 50%
20:00 +16°C° 0 mm 1 mps 563 mmHg 55%
21:00 +16°C° 0 mm 1 mps 563 mmHg 55%
22:00 +16°C° 0 mm 1 mps 563 mmHg 56%
23:00 +16°C° 0 mm 1 mps 563 mmHg 56%

Tomorrow, 24 January, Sunday

Time Temperature Precipitation Wind Pressure Humidity
00:00 +15°C° 0 mm 1 mps 562 mmHg 57%
01:00 +15°C° 0 mm 1 mps 562 mmHg 58%
02:00 +15°C° 0 mm 1 mps 562 mmHg 58%
03:00 +14°C° 0 mm 1 mps 562 mmHg 59%
04:00 +14°C° 0 mm 1 mps 562 mmHg 59%
05:00 +14°C° 0 mm 1 mps 562 mmHg 60%
06:00 +14°C° 0 mm 0 mps 562 mmHg 58%
07:00 +14°C° 0 mm 0 mps 563 mmHg 56%
08:00 +15°C° 0 mm 0 mps 563 mmHg 54%
09:00 +16°C° 0 mm 0 mps 564 mmHg 48%
10:00 +20°C° 0 mm 1 mps 564 mmHg 42%
11:00 +21°C° 0 mm 1 mps 565 mmHg 36%
12:00 +22°C° 0 mm 1 mps 564 mmHg 33%
13:00 +23°C° 0 mm 2 mps 564 mmHg 29%
14:00 +23°C° 0 mm 2 mps 563 mmHg 26%
15:00 +21°C° 0 mm 3 mps 563 mmHg 31%
16:00 +20°C° 0 mm 3 mps 562 mmHg 36%
17:00 +19°C° 0 mm 4 mps 562 mmHg 41%
18:00 +18°C° 0 mm 3 mps 562 mmHg 46%
19:00 +16°C° 0 mm 2 mps 562 mmHg 51%
20:00 +15°C° 0 mm 2 mps 562 mmHg 57%
21:00 +15°C° 0 mm 2 mps 562 mmHg 58%
22:00 +14°C° 0 mm 1 mps 561 mmHg 60%
23:00 +14°C° 0 mm 1 mps 561 mmHg 62%

Day after tomorrow, 25 January, Monday

Time Temperature Precipitation Wind Pressure Humidity
00:00 +13°C° 0 mm 1 mps 561 mmHg 63%
01:00 +13°C° 0 mm 1 mps 561 mmHg 64%
02:00 +13°C° 0 mm 1 mps 561 mmHg 65%
03:00 +12°C° 0 mm 1 mps 560 mmHg 65%
04:00 +12°C° 0 mm 1 mps 560 mmHg 65%
05:00 +12°C° 0 mm 1 mps 560 mmHg 65%
06:00 +13°C° 0 mm 1 mps 561 mmHg 61%
07:00 +14°C° 0 mm 1 mps 562 mmHg 57%
08:00 +15°C° 0 mm 1 mps 563 mmHg 52%
09:00 +18°C° 0 mm 1 mps 563 mmHg 46%
10:00 +20°C° 0 mm 1 mps 564 mmHg 39%
11:00 +21°C° 0 mm 1 mps 564 mmHg 32%
12:00 +21°C° 0 mm 2 mps 564 mmHg 30%
13:00 +21°C° 0 mm 2 mps 563 mmHg 29%
14:00 +22°C° 0 mm 3 mps 563 mmHg 27%
15:00 +20°C° 0 mm 3 mps 562 mmHg 32%
16:00 +19°C° 0 mm 3 mps 562 mmHg 36%
17:00 +18°C° 0 mm 4 mps 561 mmHg 41%
18:00 +17°C° 0 mm 3 mps 561 mmHg 47%
19:00 +16°C° 0 mm 2 mps 561 mmHg 52%
20:00 +15°C° 0 mm 2 mps 561 mmHg 58%
21:00 +14°C° 0 mm 2 mps 561 mmHg 61%
22:00 +14°C° 0 mm 1 mps 561 mmHg 64%
23:00 +13°C° 0 mm 1 mps 561 mmHg 66%

26 January, Tuesday

Time Temperature Precipitation Wind Pressure Humidity
00:00 +13°C° 0 mm 1 mps 561 mmHg 67%
01:00 +13°C° 0 mm 1 mps 561 mmHg 69%
02:00 +12°C° 0 mm 1 mps 561 mmHg 70%
03:00 +12°C° 0 mm 1 mps 560 mmHg 70%
04:00 +12°C° 0 mm 1 mps 560 mmHg 71%
05:00 +12°C° 0 mm 1 mps 560 mmHg 71%
06:00 +12°C° 0 mm 1 mps 561 mmHg 67%
07:00 +13°C° 0 mm 1 mps 562 mmHg 63%
08:00 +14°C° 0 mm 1 mps 563 mmHg 58%
09:00 +16°C° 0 mm 1 mps 563 mmHg 51%
10:00 +19°C° 0 mm 1 mps 564 mmHg 43%
11:00 +20°C° 0 mm 2 mps 564 mmHg 36%
12:00 +20°C° 0 mm 2 mps 564 mmHg 34%
13:00 +21°C° 0 mm 3 mps 563 mmHg 32%
14:00 +22°C° 0 mm 3 mps 563 mmHg 31%
15:00 +21°C° 0 mm 3 mps 563 mmHg 36%
16:00 +19°C° 0 mm 3 mps 562 mmHg 41%
17:00 +18°C° 0 mm 3 mps 562 mmHg 46%
18:00 +17°C° 0 mm 3 mps 562 mmHg 51%
19:00 +16°C° 0 mm 2 mps 562 mmHg 56%
20:00 +15°C° 0 mm 2 mps 562 mmHg 61%
21:00 +14°C° 0 mm 1 mps 562 mmHg 62%
22:00 +14°C° 0 mm 1 mps 562 mmHg 62%
23:00 +14°C° 0 mm 1 mps 562 mmHg 63%

27 January, Wednesday

Time Temperature Precipitation Wind Pressure Humidity
00:00 +13°C° 0 mm 1 mps 561 mmHg 62%
01:00 +13°C° 0 mm 1 mps 561 mmHg 62%
02:00 +13°C° 0 mm 1 mps 561 mmHg 61%
03:00 +12°C° 0 mm 0 mps 561 mmHg 61%
04:00 +12°C° 0 mm 0 mps 561 mmHg 61%
05:00 +11°C° 0 mm 0 mps 561 mmHg 60%
06:00 +12°C° 0 mm 0 mps 562 mmHg 58%
07:00 +14°C° 0 mm 1 mps 563 mmHg 56%
08:00 +15°C° 0 mm 1 mps 564 mmHg 53%
09:00 +18°C° 0 mm 1 mps 565 mmHg 47%
10:00 +20°C° 0 mm 1 mps 565 mmHg 40%
11:00 +20°C° 0 mm 2 mps 566 mmHg 34%
12:00 +22°C° 0 mm 1 mps 566 mmHg 32%
13:00 +23°C° 0 mm 1 mps 565 mmHg 31%
14:00 +24°C° 0 mm 1 mps 565 mmHg 29%
15:00 +23°C° 0.2 mm 2 mps 565 mmHg 35%
16:00 +21°C° 0.2 mm 2 mps 565 mmHg 40%
17:00 +20°C° 0.2 mm 3 mps 564 mmHg 45%
18:00 +18°C° 0.9 mm 3 mps 564 mmHg 55%
19:00 +16°C° 0.9 mm 3 mps 564 mmHg 64%
20:00 +13°C° 0.9 mm 3 mps 564 mmHg 74%
21:00 +14°C° 0.1 mm 2 mps 564 mmHg 75%
22:00 +14°C° 0.1 mm 2 mps 564 mmHg 75%
23:00 +14°C° 0.1 mm 2 mps 564 mmHg 76%

28 January, Thursday

Time Temperature Precipitation Wind Pressure Humidity
00:00 +14°C° 0 mm 2 mps 564 mmHg 77%
01:00 +13°C° 0 mm 2 mps 564 mmHg 78%
02:00 +13°C° 0 mm 2 mps 564 mmHg 79%
03:00 +13°C° 0 mm 2 mps 563 mmHg 80%
04:00 +13°C° 0 mm 1 mps 563 mmHg 81%
05:00 +12°C° 0 mm 1 mps 563 mmHg 81%
06:00 +13°C° 0 mm 1 mps 564 mmHg 78%
07:00 +13°C° 0 mm 1 mps 564 mmHg 76%
08:00 +13°C° 0 mm 2 mps 565 mmHg 73%
09:00 +15°C° 0 mm 2 mps 565 mmHg 65%
10:00 +17°C° 0 mm 2 mps 566 mmHg 58%
11:00 +18°C° 0 mm 2 mps 566 mmHg 50%
Show more